KI5RAB Weather Reports


time (UTC)temp
F
wind
direction
speed
knots
gust
knots
rain 1hr
in
rain 24hr
in
rain mn
in
humidity
%
barometer
mb
20260507012807 67 327 1.7 1.7 0.00 0.00 0.00 79 1015.2
20260507012306 67 216 1.7 1.7 0.00 0.00 0.00 79 1015.1
20260507011800 67 330 3.5 5.2 0.00 0.00 0.00 79 1015.1
20260507011256 67 308 1.7 1.7 0.00 0.00 0.00 79 1015.1
20260507010756 68 48 0.9 1.7 0.00 0.00 0.00 79 1015.0
20260507010252 68 294 1.7 2.6 0.00 0.00 0.00 79 1014.9
20260507005750 68 324 2.6 3.5 0.00 0.00 0.00 78 1014.9
20260507005246 68 315 3.5 6.1 0.00 0.00 0.00 78 1014.8
20260507004742 68 308 5.2 7.8 0.00 0.00 0.00 78 1014.3
20260507004240 69 357 1.7 1.7 0.00 0.00 0.00 77 1014.6
20260507003736 69 307 5.2 7.0 0.00 0.00 0.00 77 1014.4
20260507003232 70 321 4.3 7.8 0.00 0.00 0.00 76 1014.5
20260507002728 70 48 3.5 5.2 0.00 0.00 0.00 76 1014.5
20260507002224 70 328 1.7 2.6 0.00 0.00 0.00 76 1014.3
20260507001721 70 351 0.9 1.7 0.00 0.00 0.00 76 1014.5
20260507001218 71 33 1.7 2.6 0.00 0.00 0.00 76 1014.2
20260507000714 71 289 0.9 2.6 0.00 0.00 0.00 75 1014.1
20260507000212 71 39 1.7 2.6 0.00 0.00 0.00 75 1013.9
20260506235708 72 349 0.9 1.7 0.00 0.00 0.00 75 1014.1
20260506235203 72 344 0.9 0.9 0.00 0.00 0.00 75 1013.6
20260506234700 72 318 4.3 7.0 0.00 0.00 0.00 75 1013.8
20260506234157 72 286 1.7 3.5 0.00 0.00 0.00 74 1013.8
20260506233654 73 24 3.5 3.5 0.00 0.00 0.00 74 1013.8
20260506233151 73 305 1.7 1.7 0.00 0.00 0.00 73 1013.8
20260506232647 73 323 0.9 0.9 0.00 0.00 0.00 73 1013.6
20260506232143 75 334 2.6 5.2 0.00 0.00 0.00 72 1013.6
20260506231640 76 7 1.7 2.6 0.00 0.00 0.00 72 1013.4
20260506231139 77 33 4.3 7.8 0.00 0.00 0.00 71 1013.4
20260506230635 77 319 1.7 1.7 0.00 0.00 0.00 70 1013.2
20260506230132 78 191 1.7 3.5 0.00 0.00 0.00 70 1013.0
20260506225628 77 1 1.7 3.5 0.00 0.00 0.00 71 1013.2
20260506225125 77 347 2.6 2.6 0.00 0.00 0.00 71 1013.1
20260506224622 78 26 1.7 3.5 0.00 0.00 0.00 72 1013.2
20260506224118 78 343 1.7 2.6 0.00 0.00 0.00 71 1012.9
20260506223614 78 307 2.6 3.5 0.00 0.00 0.00 71 1012.9
20260506223110 79 12 3.5 7.0 0.00 0.00 0.00 71 1012.8
20260506222608 79 359 3.5 6.1 0.00 0.00 0.00 71 1012.7
20260506222104 79 46 3.5 6.1 0.00 0.00 0.00 70 1012.8
20260506221602 80 59 1.7 2.6 0.00 0.00 0.00 70 1012.4
20260506221100 81 69 3.5 5.2 0.00 0.00 0.00 69 1012.5
20260506220555 81 347 3.5 5.2 0.00 0.00 0.00 69 1012.5
20260506220051 82 98 5.2 8.7 0.00 0.00 0.00 69 1012.4
20260506215548 82 324 3.5 6.1 0.00 0.00 0.00 68 1012.4
20260506215043 82 52 3.5 7.0 0.00 0.00 0.00 70 1012.6
20260506214541 83 44 0.9 0.9 0.00 0.00 0.00 70 1012.6
20260506214038 82 347 1.7 3.5 0.00 0.00 0.00 71 1012.3
20260506213536 82 29 0.9 1.7 0.00 0.00 0.00 72 1012.5
20260506213033 82 56 3.5 3.5 0.00 0.00 0.00 71 1012.6
20260506212530 82 6 0.9 1.7 0.00 0.00 0.00 71 1012.3
20260506212024 82 340 1.7 3.5 0.00 0.00 0.00 71 1012.2
20260506211521 85 323 1.7 3.5 0.00 0.00 0.00 68 1012.3
20260506211018 89 39 0.9 2.6 0.00 0.00 0.00 62 1012.1
20260506210514 89 59 3.5 5.2 0.00 0.00 0.00 61 1012.2
20260506210011 89 331 1.7 1.7 0.00 0.00 0.00 62 1012.1
20260506205508 89 327 0.0 0.9 0.00 0.00 0.00 60 1012.3
20260506205003 88 340 0.9 1.7 0.00 0.00 0.00 63 1012.2
20260506204501 87 338 0.9 0.9 0.00 0.00 0.00 66 1012.4
20260506203953 86 355 1.7 1.7 0.00 0.00 0.00 67 1012.4
20260506203450 87 26 3.5 5.2 0.00 0.00 0.00 67 1012.5
20260506202947 89 357 1.7 2.6 0.00 0.00 0.00 62 1012.5
20260506202444 87 26 1.7 1.7 0.00 0.00 0.00 65 1012.3
20260506201940 86 355 0.0 0.9 0.00 0.00 0.00 66 1012.4
20260506201438 89 58 2.6 3.5 0.00 0.00 0.00 63 1012.6
20260506200934 88 320 1.7 1.7 0.00 0.00 0.00 64 1012.8
20260506200430 87 327 0.9 1.7 0.00 0.00 0.00 64 1012.8
20260506195927 87 9 1.7 1.7 0.00 0.00 0.00 65 1012.8
20260506195424 86 344 1.7 1.7 0.00 0.00 0.00 68 1012.9
20260506194921 85 328 0.9 0.9 0.00 0.00 0.00 68 1012.8
20260506194418 86 329 0.0 0.0 0.00 0.00 0.00 68 1012.8
20260506193915 86 316 0.0 0.0 0.00 0.00 0.00 70 1012.8
20260506193412 85 332 0.0 0.9 0.00 0.00 0.00 69 1012.7
20260506192908 87 318 0.9 0.9 0.00 0.00 0.00 67 1012.8
20260506192405 87 321 0.0 0.0 0.00 0.00 0.00 68 1012.8
20260506191902 86 315 0.0 0.0 0.00 0.00 0.00 68 1012.9
20260506191358 86 348 1.7 1.7 0.00 0.00 0.00 69 1013.0
20260506190855 85 46 1.7 2.6 0.00 0.00 0.00 70 1013.2
20260506190352 83 310 0.0 0.9 0.00 0.00 0.00 73 1013.1
20260506185849 84 4 0.9 0.9 0.00 0.00 0.00 71 1013.1
20260506185346 85 344 3.5 5.2 0.00 0.00 0.00 69 1013.3
20260506184843 84 3 1.7 1.7 0.00 0.00 0.00 70 1013.2
20260506184340 84 242 0.9 1.7 0.00 0.00 0.00 74 1013.3
20260506183837 84 341 0.9 1.7 0.00 0.00 0.00 75 1013.4
20260506183332 84 316 0.0 0.9 0.00 0.00 0.00 74 1013.6
20260506182830 82 332 0.9 1.7 0.00 0.00 0.00 76 1013.5
20260506182327 82 359 3.5 3.5 0.00 0.00 0.00 77 1013.6
20260506181825 82 24 1.7 3.5 0.00 0.00 0.00 78 1013.6
20260506181322 80 321 0.9 0.9 0.00 0.00 0.00 81 1013.7
20260506180819 80 58 0.9 1.7 0.00 0.00 0.00 81 1013.8
20260506180315 80 357 0.0 0.9 0.00 0.00 0.00 81 1013.9
20260506175812 80 24 3.5 5.2 0.00 0.00 0.00 82 1014.0
20260506175308 80 339 2.6 2.6 0.00 0.00 0.00 82 1013.9
20260506174806 80 340 0.0 0.9 0.00 0.00 0.00 81 1014.1
20260506174303 79 23 0.9 0.9 0.00 0.00 0.00 82 1014.2
20260506173800 79 17 1.7 1.7 0.00 0.00 0.00 81 1014.1
20260506173257 79 351 0.0 0.9 0.00 0.00 0.00 82 1013.9
20260506172754 79 344 0.0 0.0 0.00 0.00 0.00 82 1014.0
20260506172250 79 337 0.0 0.9 0.00 0.00 0.00 82 1014.0
20260506171748 79 14 1.7 1.7 0.00 0.00 0.00 82 1014.2
20260506171245 79 334 0.0 0.0 0.00 0.00 0.00 83 1014.3
20260506170743 78 326 0.9 0.9 0.00 0.00 0.00 84 1014.1
20260506170239 78 329 0.0 0.9 0.00 0.00 0.00 84 1014.2
20260506165738 78 48 0.9 2.6 0.00 0.00 0.00 83 1014.2
20260506165234 79 344 0.9 0.9 0.00 0.00 0.00 82 1014.2
20260506164732 79 320 0.0 0.9 0.00 0.00 0.00 81 1014.1
20260506164228 79 13 0.9 0.9 0.00 0.00 0.00 83 1014.2
20260506163725 79 335 1.7 1.7 0.00 0.00 0.00 83 1013.9
20260506163220 78 60 0.9 0.9 0.00 0.00 0.00 84 1014.2
20260506162716 79 13 1.7 1.7 0.00 0.00 0.00 85 1014.1
20260506162214 78 4 0.0 0.9 0.00 0.00 0.00 84 1014.1
20260506161711 78 316 0.9 0.9 0.00 0.00 0.00 85 1014.0
20260506161208 79 335 0.0 0.9 0.00 0.00 0.00 84 1014.1
20260506160706 79 34 2.6 2.6 0.00 0.00 0.00 84 1013.9
20260506160202 78 333 0.9 0.9 0.00 0.00 0.00 86 1013.8
20260506155701 78 341 0.9 1.7 0.00 0.00 0.00 86 1013.8
20260506155157 77 11 0.0 0.0 0.00 0.00 0.00 87 1013.9
20260506153259 76 1 1.7 1.7 0.00 0.00 0.00 90 1013.8
20260506152756 76 333 0.0 0.9 0.00 0.00 0.00 91 1013.5
20260506152254 76 359 0.9 1.7 0.00 0.00 0.00 90 1013.5
20260506151753 76 15 0.0 0.9 0.00 0.00 0.00 91 1013.4
20260506151249 76 13 0.9 0.9 0.00 0.00 0.00 91 1013.4
20260506150745 76 328 0.9 0.9 0.00 0.00 0.00 91 1013.3
20260506150243 76 327 0.0 0.0 0.00 0.00 0.00 92 1013.2
20260506145739 76 320 0.0 0.0 0.00 0.00 0.00 92 1013.2
20260506145236 75 323 0.0 0.0 0.00 0.00 0.00 92 1013.4
20260506144733 75 318 0.0 0.0 0.00 0.00 0.00 92 1013.2
20260506144230 75 321 0.0 0.0 0.00 0.00 0.00 92 1013.3
20260506143728 75 330 0.0 0.9 0.00 0.00 0.00 92 1013.1
20260506143225 75 344 0.9 0.9 0.00 0.00 0.00 92 1013.1
20260506142724 75 328 0.0 0.9 0.00 0.00 0.00 92 1012.7
20260506142221 75 331 0.0 0.0 0.00 0.00 0.00 92 1012.7
20260506141719 76 348 0.0 0.0 0.00 0.00 0.00 91 1012.8
20260506141217 75 322 0.0 0.0 0.00 0.00 0.00 91 1012.7
20260506140714 75 320 0.0 0.0 0.00 0.00 0.00 91 1012.8
20260506140211 76 327 0.0 0.0 0.00 0.00 0.00 91 1012.3
20260506135708 76 317 0.0 0.0 0.00 0.00 0.00 91 1012.4
20260506135204 75 324 0.0 0.0 0.00 0.00 0.00 91 1012.3
20260506134701 75 317 0.0 0.0 0.00 0.00 0.00 91 1012.1
20260506134157 75 323 0.0 0.0 0.00 0.00 0.00 90 1011.9
20260506133655 75 324 0.0 0.9 0.00 0.00 0.00 90 1012.1
20260506133151 75 108 1.7 2.6 0.00 0.00 0.00 91 1012.2
20260506132649 75 315 0.0 0.0 0.00 0.00 0.00 91 1012.0
20260506132145 75 326 0.0 0.0 0.00 0.00 0.00 91 1011.9
20260506131643 75 293 0.9 1.7 0.00 0.00 0.00 91 1011.8
20260506131139 75 11 0.9 1.7 0.00 0.00 0.00 91 1011.8
20260506130636 75 357 0.0 0.0 0.00 0.00 0.00 91 1011.5
20260506130133 75 298 0.0 0.0 0.00 0.00 0.00 91 1011.8
20260506125632 75 320 0.0 0.0 0.00 0.00 0.00 91 1011.6
20260506125129 75 328 0.0 0.0 0.00 0.00 0.00 91 1011.5
20260506124627 75 123 1.7 2.6 0.00 0.00 0.00 91 1011.5
20260506124124 75 343 0.0 0.0 0.00 0.00 0.00 91 1011.5
20260506123622 75 329 0.0 0.9 0.00 0.00 0.00 91 1011.9
20260506123120 75 359 0.9 0.9 0.00 0.00 0.00 91 1011.6
20260506122616 75 348 0.0 0.0 0.00 0.00 0.00 91 1011.7
20260506122114 75 51 1.7 2.6 0.00 0.00 0.00 91 1011.7
20260506121612 75 12 0.0 0.9 0.00 0.00 0.00 92 1011.7
20260506121108 75 339 0.0 0.9 0.00 0.00 0.00 92 1011.7
20260506120606 75 321 0.0 0.0 0.00 0.00 0.00 92 1011.5
20260506115601 75 7 0.9 1.7 0.00 0.00 0.00 92 1011.5
20260506115059 75 327 0.0 0.0 0.00 0.00 0.00 91 1011.7
20260506114556 75 337 0.0 0.0 0.00 0.00 0.00 91 1011.7
20260506114054 75 326 0.9 1.7 0.00 0.00 0.00 91 1011.3
20260506113552 75 326 0.0 0.0 0.00 0.00 0.00 91 1011.2
20260506113049 75 319 0.0 0.0 0.00 0.00 0.00 91 1011.6
20260506112546 75 320 0.0 0.0 0.00 0.00 0.00 91 1011.6
20260506112043 75 323 0.0 0.9 0.00 0.00 0.00 91 1011.5
20260506111541 75 322 0.0 0.0 0.00 0.00 0.00 91 1011.6
20260506111038 75 340 0.0 0.0 0.00 0.00 0.00 91 1011.7
20260506110536 75 318 0.0 0.0 0.00 0.00 0.00 91 1011.5
20260506110033 75 321 0.0 0.0 0.00 0.00 0.00 90 1011.8
20260506105528 75 357 0.0 0.9 0.00 0.00 0.00 90 1011.6
20260506105026 75 335 0.0 0.0 0.00 0.00 0.00 90 1011.3
20260506104524 75 324 0.0 0.9 0.00 0.00 0.00 90 1011.3
20260506104022 75 320 0.0 0.0 0.00 0.00 0.00 90 1011.2
20260506103519 75 335 0.0 0.0 0.00 0.00 0.00 91 1011.2
20260506103015 75 308 0.9 1.7 0.00 0.00 0.00 91 1011.5
20260506102514 75 319 0.0 0.0 0.00 0.00 0.00 90 1011.3
20260506102011 75 340 0.0 0.0 0.00 0.00 0.00 90 1011.3
20260506101507 75 355 0.9 0.9 0.00 0.00 0.00 90 1011.2
20260506101004 75 320 0.0 0.0 0.00 0.00 0.00 90 1011.3
20260506100503 75 332 0.0 0.0 0.00 0.00 0.00 90 1011.2
20260506100000 75 324 0.0 0.0 0.00 0.00 0.00 90 1011.1
20260506095459 75 326 0.0 0.0 0.00 0.00 0.00 90 1011.3
20260506094954 75 321 0.0 0.0 0.00 0.00 0.00 90 1011.3
20260506094453 75 322 0.0 0.0 0.00 0.00 0.00 90 1011.3
20260506093950 75 326 0.0 0.9 0.00 0.00 0.00 90 1011.3
20260506093448 75 335 0.0 0.0 0.00 0.00 0.00 90 1011.1
20260506092946 75 326 0.0 0.0 0.00 0.00 0.00 90 1011.5
20260506092444 75 317 0.0 0.0 0.00 0.00 0.00 90 1011.1
20260506091940 75 315 0.9 1.7 0.00 0.00 0.00 90 1010.9
20260506091438 75 324 0.0 0.0 0.00 0.00 0.00 90 1011.2
20260506090935 75 312 0.9 0.9 0.00 0.00 0.00 90 1011.2
20260506090433 75 340 0.9 1.7 0.00 0.00 0.00 90 1011.0
20260506085929 75 298 0.9 0.9 0.00 0.00 0.00 90 1011.0
20260506085426 75 88 1.7 2.6 0.00 0.00 0.00 90 1011.1
20260506084922 75 269 0.0 0.9 0.00 0.00 0.00 90 1011.3
20260506084420 75 324 0.0 0.0 0.00 0.00 0.00 90 1011.2
20260506083915 75 17 1.7 2.6 0.00 0.00 0.00 90 1011.2
20260506083413 75 329 0.0 0.0 0.00 0.00 0.00 90 1011.2
20260506082910 75 319 0.0 0.0 0.00 0.00 0.00 90 1011.1
20260506082407 75 14 0.9 2.6 0.00 0.00 0.00 90 1011.5
20260506081902 76 328 0.9 1.7 0.00 0.00 0.00 90 1011.5
20260506081401 76 309 0.9 0.9 0.00 0.00 0.00 89 1011.5
20260506080858 76 323 0.0 0.0 0.00 0.00 0.00 89 1011.5
20260506080355 76 352 0.0 0.9 0.00 0.00 0.00 89 1011.3
20260506073339 76 320 0.0 0.0 0.00 0.00 0.00 89 1011.5
20260506072835 76 306 0.0 0.0 0.00 0.00 0.00 89 1011.8
20260506072333 76 60 0.9 1.7 0.00 0.00 0.00 89 1011.5
20260506071831 76 318 0.0 0.0 0.00 0.00 0.00 89 1011.7
20260506071329 76 328 0.9 0.9 0.00 0.00 0.00 89 1012.0
20260506070826 76 55 1.7 2.6 0.00 0.00 0.00 89 1011.8
20260506070322 76 19 0.0 0.9 0.00 0.00 0.00 89 1011.7
20260506062300 76 318 3.5 5.2 0.00 0.00 0.00 89 1011.8
20260506061755 76 309 0.0 0.0 0.00 0.00 0.00 89 1011.9
20260506061253 76 19 0.9 0.9 0.00 0.00 0.00 89 1011.7
20260506060751 76 76 0.9 1.7 0.00 0.00 0.00 89 1011.7
20260506060248 76 55 1.7 3.5 0.00 0.00 0.00 89 1011.9
20260506051220 77 319 0.0 0.0 0.00 0.00 0.00 88 1011.9
20260506050718 77 106 0.9 0.9 0.00 0.00 0.00 88 1011.8
20260506050215 77 347 0.0 0.9 0.00 0.00 0.00 88 1011.6
20260506044706 77 330 0.0 0.0 0.00 0.00 0.00 88 1011.6
20260506044203 77 353 0.9 1.7 0.00 0.00 0.00 88 1011.8
20260506043700 77 193 0.9 1.7 0.00 0.00 0.00 87 1011.8
20260506043158 77 329 0.0 0.9 0.00 0.00 0.00 87 1011.8
20260506042657 77 69 0.9 2.6 0.00 0.00 0.00 87 1011.7
20260506042155 77 5 0.0 0.0 0.00 0.00 0.00 87 1011.6
20260506041653 78 6 0.0 0.0 0.00 0.00 0.00 87 1011.6
20260506041149 78 327 0.0 0.9 0.00 0.00 0.00 87 1011.5
20260506040647 78 340 1.7 2.6 0.00 0.00 0.00 87 1011.6
20260506040144 78 324 0.9 0.9 0.00 0.00 0.00 87 1011.5
20260506035641 78 345 0.9 0.9 0.00 0.00 0.00 87 1011.3
20260506035137 78 346 0.9 0.9 0.00 0.00 0.00 87 1011.5
20260506034634 78 6 0.9 1.7 0.00 0.00 0.00 86 1011.2
20260506034131 78 67 1.7 5.2 0.00 0.00 0.00 86 1011.0
20260506033629 78 45 2.6 5.2 0.00 0.00 0.00 86 1011.1
20260506033126 78 320 0.0 0.0 0.00 0.00 0.00 86 1010.8
20260506032623 78 335 0.0 0.9 0.00 0.00 0.00 86 1010.9
20260506032120 78 328 1.7 1.7 0.00 0.00 0.00 86 1010.7
20260506031617 79 6 0.0 0.9 0.00 0.00 0.00 85 1010.6
20260506031113 79 52 0.9 1.7 0.00 0.00 0.00 85 1010.7
20260506030612 79 326 0.9 0.9 0.00 0.00 0.00 84 1010.7
20260506030109 79 67 0.9 1.7 0.00 0.00 0.00 84 1010.4
20260506025606 79 4 0.9 1.7 0.00 0.00 0.00 84 1010.5
20260506025102 80 318 0.9 0.9 0.00 0.00 0.00 83 1010.5
20260506024559 80 334 0.0 0.0 0.00 0.00 0.00 83 1010.2
20260506024055 80 44 1.7 2.6 0.00 0.00 0.00 83 1010.2
20260506023551 80 269 0.9 0.9 0.00 0.00 0.00 82 1010.2
20260506023049 80 318 0.0 0.9 0.00 0.00 0.00 82 1010.0
20260506022547 81 38 2.6 5.2 0.00 0.00 0.00 81 1010.1
20260506022044 81 291 1.7 2.6 0.00 0.00 0.00 81 1010.0
20260506021541 82 337 0.0 0.0 0.00 0.00 0.00 80 1010.1
20260506021038 82 1 0.0 0.9 0.00 0.00 0.00 79 1010.0
20260506020536 82 42 0.9 1.7 0.00 0.00 0.00 78 1010.0
20260506020033 82 339 0.0 0.0 0.00 0.00 0.00 77 1009.8
20260506015531 82 22 0.9 0.9 0.00 0.00 0.00 77 1009.7
20260506015027 83 9 3.5 3.5 0.00 0.00 0.00 76 1009.6
20260506014525 83 344 0.0 0.9 0.00 0.00 0.00 75 1009.6
20260506014021 83 358 0.0 0.9 0.00 0.00 0.00 75 1009.5
20260506013519 83 341 0.0 0.9 0.00 0.00 0.00 75 1009.5
20260506013015 83 23 1.7 2.6 0.00 0.00 0.00 75 1009.4